TimeCST,TemperatureF,Dew PointF,Humidity,Sea Level PressureIn,VisibilityMPH,Wind Direction,Wind SpeedMPH,Gust SpeedMPH,PrecipitationIn,Events,Conditions,WindDirDegrees,DateUTC
12:53 AM,35.1,21.0,57,30.33,10.0,Calm,Calm,-,N/A,,Clear,0,2012-12-13 06:53:00
1:53 AM,35.1,21.0,57,30.34,10.0,SW,3.5,-,N/A,,Clear,220,2012-12-13 07:53:00
2:53 AM,33.1,21.9,64,30.34,10.0,SSW,3.5,-,N/A,,Clear,200,2012-12-13 08:53:00
3:53 AM,27.0,21.9,81,30.34,10.0,East,3.5,-,N/A,,Clear,80,2012-12-13 09:53:00
4:53 AM,30.0,21.9,72,30.34,10.0,Calm,Calm,-,N/A,,Clear,0,2012-12-13 10:53:00
5:53 AM,26.1,23.0,88,30.35,10.0,Calm,Calm,-,N/A,,Clear,0,2012-12-13 11:53:00
6:53 AM,27.0,21.9,81,30.36,10.0,East,4.6,-,N/A,,Clear,90,2012-12-13 12:53:00
7:53 AM,30.0,23.0,75,30.36,10.0,ESE,4.6,-,N/A,,Clear,110,2012-12-13 13:53:00
8:53 AM,39.0,26.1,60,30.36,10.0,Calm,Calm,-,N/A,,Clear,0,2012-12-13 14:53:00
9:53 AM,46.0,26.1,46,30.38,10.0,SSE,5.8,-,N/A,,Clear,150,2012-12-13 15:53:00
10:53 AM,50.0,23.0,35,30.37,10.0,SSE,5.8,-,N/A,,Clear,160,2012-12-13 16:53:00
11:53 AM,52.0,21.0,30,30.35,10.0,Variable,4.6,-,N/A,,Clear,0,2012-12-13 17:53:00
12:53 PM,55.0,21.0,27,30.32,10.0,South,5.8,-,N/A,,Clear,190,2012-12-13 18:53:00
1:53 PM,57.0,21.0,25,30.30,10.0,Variable,4.6,-,N/A,,Clear,0,2012-12-13 19:53:00
2:53 PM,57.0,18.0,22,30.27,10.0,SSE,3.5,-,N/A,,Clear,150,2012-12-13 20:53:00
3:53 PM,57.9,21.0,24,30.26,10.0,Calm,Calm,-,N/A,,Clear,0,2012-12-13 21:53:00
7:53 PM,46.9,21.0,36,30.26,10.0,SSE,5.8,-,N/A,,Clear,150,2012-12-14 01:53:00
8:53 PM,44.1,23.0,43,30.27,10.0,South,3.5,-,N/A,,Clear,170,2012-12-14 02:53:00
9:05 PM,44.6,24.8,46,30.27,10.0,South,3.5,-,N/A,,Clear,190,2012-12-14 03:05:00
9:53 PM,37.9,25.0,60,30.28,10.0,South,3.5,-,N/A,,Clear,180,2012-12-14 03:53:00
10:53 PM,43.0,25.0,49,30.27,10.0,SSE,4.6,-,N/A,,Clear,160,2012-12-14 04:53:00
11:53 PM,43.0,26.1,51,30.26,10.0,SE,4.6,-,N/A,,Clear,140,2012-12-14 05:53:00